Find Starlink 35335

NORAD ID: 66180 Int'l Des: 2025-243 Owner: SPXS Country: US Constellation: starlink operational
LEOCIRCULAR

Current View

Loading 3D Globe...

About Starlink 35335

Description loading...

Upcoming Passes

Passes for default location (London). Set your location on the main map for personalized predictions.

Altitude History

Loading altitude history...

Two-Line Element Set

1 66180U 25243D 26145.58047327 .00005702 00000-0 20454-3 0 9993
2 66180 53.1565 248.2777 0000873 295.2514 64.8397 15.30192781 32426
Epoch: May 25, 2026 • Age: 17 hours

Current Status

Altitude 479.8 km
Velocity 7.63 km/s
Sub-Earth Point -16.78°S, 96.99°E
Launch Date Oct 26, 2025
Age 0.5 years
Type internet

Technical Details

Classification Payload
Mass 575.00 kg
Dry Mass 530.00 kg
Total Mass 575.00 kg
Length 0.30 m
Diameter 4.10 m
Span 29.00 m
Shape Box + pan
Manufacturer SPXS
Bus Type Starlink V2MO
Phase Status In Orbit
Owner/State SPXS/US

Most Searched